{"data":{"norad_id":64879,"epoch":"2026-09-19T22:51:46.625472Z","epoch_age_seconds":61632,"freshness":"FRESH","line1":"1 64879U 25155D   26262.95262298  .00007463  00000+0  24551-3 0  9992","line2":"2 64879  97.4672 232.0452 0007030 184.3848 175.7333 15.31795089 95264","mean_motion":15.31795089,"eccentricity":0.000703,"inclination_deg":97.4672,"raan_deg":232.0452,"arg_perigee_deg":184.3848,"mean_anomaly_deg":175.7333,"bstar":0.00024551,"rev_number":9526,"period_min":94.007351919379,"perigee_km":465.64199325929,"apogee_km":475.27111579695,"semimajor_km":6848.5935545281,"source":"CELESTRAK","updated_at":"2026-09-20T09:00:45.266176Z"}}